Location: Newark
(48.1500°N, 2.9667°W)
Time: 11:59:57
(UTC+00:00)

A-11 Canister half - Pass Details

Date: 27 January 2020
Orbit: 1517 x 1683 km, 47.2° (Epoch: 24 February)

Event Time Altitude Azimuth Distance (km) Brightness Sun altitude
Exits shadow 02:21:26 21° 92° (E) 2,911 10.6 -52.1°
Drops below altitude 10° 02:23:53 10° 92° (E) 3,685 11.3 -51.8°
Sets 02:26:55 0° 92° (E) 4,675 11.9 -51.4°
